Location: USNO
(38.9242°N, 77.0663°W)
Time: 22:04:37
(UTC-04:00)

N. Korean satellite - Pass Details

Date: 09 October 2017
Orbit: 459 x 517 km, 97.2° (Epoch: 23 October)

Event Time Altitude Azimuth Distance (km) Brightness Sun altitude
Rises 19:45:09 0° 188° (S) 2,575 10.3 -13.8°
Reaches altitude 10° 19:47:25 10° 199° (SSW) 1,687 9.5 -14.3°
Maximum altitude 19:50:39 30° 263° (W) 892 8.7 -14.9°
Drops below altitude 10° 19:53:52 10° 326° (NNW) 1,669 9.8 -15.5°
Sets 19:56:05 0° 338° (NNW) 2,543 10.6 -16.0°
